x

South Brooks (46132) Wave Buoy

4:00 - Sun 31st Aug 2014 All times are PDT. -7 hours from GMT.

  • Sig Wave height 6.2ft
  • Peak Period 11s
  • Wind
    2mph
  • Sea Temp 60°f
  • Luft Temp 59°f
  • Sea Pressure 1015.5mb
  • South Brooks
  • South Brooks

More Historic Weather Station data

Upgrade to MSW Pro to gain access to the past 30 days of data for over 8000 Wavebouys and Weather Stations around the globe.

Join Pro

Comparision Forecast

View Surf forecast
   
So 08/31 4:00 6ft 11s 2
mph
1015.5mb 60f 59f
3:00 6ft 11s  -  2 mph 1015.5mb 60f 59f
2:00 6ft 10s 2 4 mph 1015.3mb 60f 60f
1:00 6ft 8s 2 4 mph 1015.1mb 61f 60f
12:00 6ft 10s 4
mph
1014.9mb 60f 60f
Sa 08/30 11:00 6ft 10s 4
mph
1014.7mb 60f 60f
10:00 6ft 11s  -  2 mph 1014.4mb 60f 60f
9:00 7ft 10s 2 4 mph 1014.3mb 60f 60f
8:00 7ft 10s 4 7 mph 1014.2mb 61f 61f
7:00 7.5ft 11s 4 7 mph 1013.7mb 61f 62f
6:00 7ft 11s 4 7 mph 1013.5mb 61f 63f
5:00 6.5ft 11s 4
mph
1013.5mb 62f 63f
4:00 7ft 11s 4 7 mph 1013.5mb 62f 62f
3:00 7ft 11s 4 7 mph 1013.2mb 61f 62f
2:00 7ft 9s 4 7 mph 1013.1mb 61f 62f
1:00 7.5ft 10s 4 7 mph 1012.8mb 60f 61f
12:00 8ft 11s 2
mph
1012.7mb 60f 61f
11:00 7ft 11s 2 4 mph 1012.3mb 60f 60f
10:00 8ft 10s 7 9 mph 1012.2mb 60f 59f
9:00 7ft 10s 7
mph
1011.5mb 59f 61f
8:00 7.5ft 10s 9 11 mph 1011.1mb 59f 60f
7:00 8.5ft 10s 9 11 mph 1011.1mb 58f 60f
6:00 8ft 10s 2 4 mph 1011mb 58f 59f
5:00 8ft 11s 4 7 mph 1011mb 58f 59f
4:00 7ft 10s 2 4 mph 1010.9mb 59f 59f
3:00 6.5ft 9s 11 25 mph 1011.2mb 59f 59f
2:00 5.5ft 9s 7
mph
1011.4mb 58f 60f
1:00 6ft 9s 4 7 mph 1011.6mb 58f 60f
12:00 6ft 9s 11 16 mph 1012mb 59f 61f
Fr 08/29 11:00 6ft 8s 11 16 mph 1012mb 60f 61f
10:00 6ft 8s 7 9 mph 1012.1mb 60f 61f
9:00 5.5ft 6s 4 7 mph 1012.4mb 60f 60f
8:00 6ft 8s 7
mph
1012.2mb 60f 60f
7:00 6ft 8s 7 9 mph 1012.4mb 60f 61f
6:00 5ft 8s 9 13 mph 1012.3mb 60f 60f
5:00 5ft 15s 9 11 mph 1012.4mb 59f 60f
4:00 4.5ft 15s 16 20 mph 1012.3mb 59f 60f
3:00 4ft 16s 16 20 mph 1012.4mb 59f 60f
2:00 4.5ft 5s 18 20 mph 1012.5mb 59f 60f
1:00 5ft 15s 20 22 mph 1012.6mb 59f 58f
12:00 4.5ft 4s 20 25 mph 1012.8mb 59f 58f
11:00 4.5ft 14s 22 25 mph 1012.9mb 59f 57f
10:00 4.5ft 15s 18 22 mph 1013.1mb 59f 58f
9:00 4ft 9s 18 20 mph 1012.9mb 59f 58f
8:00 3.5ft 8s 16 20 mph 1013.1mb 59f 59f
7:00 3.5ft 15s 13 16 mph 1013.1mb 59f 60f
6:00 3.5ft 10s 11 13 mph 1013.1mb 59f 60f
5:00 3.5ft 8s 11 13 mph 1013.4mb 59f 59f
4:00 3.5ft 15s 11 13 mph 1013.8mb 59f 60f
3:00 3.5ft 10s 9 11 mph 1014.3mb 59f 60f
2:00 3.5ft 10s 4 7 mph 1015mb 59f 59f
1:00 4ft 10s 4
mph
1015.5mb 59f 59f
12:00 4ft 15s 4
mph
1016.1mb 60f 60f
Do 08/28 11:00 4ft 10s 4 7 mph 1016.6mb 59f 60f
10:00 4ft 10s 9
mph
1017mb 59f 60f
9:00 4.5ft 10s 7 9 mph 1017.2mb 59f 60f
8:00 4.5ft 11s 7 9 mph 1017.7mb 60f 60f
7:00 4ft 9s 7
mph
1018mb 60f 60f
6:00 4.5ft 9s 9 11 mph 1018.1mb 60f 60f
5:00 4ft 10s 9 11 mph 1018.4mb 60f 60f
4:00 4.5ft 10s 11
mph
1018.8mb 59f 60f
3:00 4.5ft 11s 11 13 mph 1018.9mb 59f 60f
2:00 4ft 9s 13 16 mph 1019.1mb 59f 59f
1:00 4ft 11s 11 13 mph 1019.2mb 59f 59f
12:00 4ft 16s 11 13 mph 1019.2mb 59f 58f
11:00 4ft 10s 11 13 mph 1019.4mb 59f 58f
10:00 4.5ft 10s 11 13 mph 1019.3mb 59f 58f
9:00 4.5ft 10s 13 16 mph 1019.1mb 59f 58f
8:00 4.5ft 10s 16 18 mph 1018.9mb 59f 58f
7:00 4.5ft 10s 16 20 mph 1018.5mb 59f 58f
6:00 4.5ft 10s 18 22 mph 1018.5mb 59f 58f
5:00 4.5ft 10s 18 20 mph 1018.3mb 59f 58f
4:00 4.5ft 10s 18 22 mph 1018.4mb 59f 58f
3:00 4.5ft 10s 18 22 mph 1018.1mb 59f 58f
2:00 4.5ft 10s 20 27 mph 1017.8mb 59f 58f
1:00 4ft 11s 20 25 mph 1017.7mb 58f 59f
12:00 4ft 10s 18 20 mph 1017.7mb 59f 59f
Mi 08/27 11:00 3.5ft 10s 16 18 mph 1017.9mb 59f 59f
10:00 3.5ft 17s 13 16 mph 1018mb 59f 59f
9:00 3.5ft 17s 11 13 mph 1018.1mb 59f 59f
8:00 3ft 17s 11
mph
1018mb 60f 59f
7:00 3ft 17s 9 11 mph 1018.2mb 61f 60f
6:00 3ft 17s 9
mph
1018.4mb 60f 60f
5:00 3ft 15s 4
mph
1018.2mb 62f 62f
4:00 3ft 17s 4
mph
1018.4mb 62f 62f
3:00 3ft 14s 2 4 mph 1018.7mb 62f 62f
2:00 3.5ft 17s 2
mph
1018.8mb 60f 62f
1:00 3.5ft 8s 2 4 mph 1019mb 60f 61f